CW3827 Weather Reports


Display with metric or nautical units.
time (UTC)temp
F
wind
direction
speed
MPH
gust
MPH
rain 1hr
in
rain 24hr
in
rain mn
in
humidity
%
barometer
mb
20260506013020 62 55 16.0 29.0 0.00 0.00 0.00 36 1013.2
20260506011535 62 59 23.0 33.0 0.00 0.00 0.00 35 1013.0
20260506010015 62 65 25.0 31.0 0.00 0.00 0.00 35 1012.9
20260506004520 64 105 21.0 37.0 0.00 0.00 0.00 34 1012.7
20260506003008 64 102 19.0 34.0 0.00 0.00 0.00 33 1012.7
20260506001507 65 89 23.0 35.0 0.00 0.00 0.00 31 1012.7
20260506000025 65 81 24.0 34.0 0.00 0.00 0.00 31 1012.7
20260505234517 66 50 25.0 39.0 0.00 0.00 0.00 32 1012.3
20260505233026 66 180 26.0 43.0 0.00 0.00 0.00 32 1012.2
20260505231518 66 77 24.0 40.0 0.00 0.00 0.00 30 1012.3
20260505230009 66 131 31.0 40.0 0.00 0.00 0.00 33 1012.2
20260505224508 66 82 25.0 43.0 0.00 0.00 0.00 34 1012.6
20260505223025 65 106 26.0 41.0 0.00 0.00 0.00 36 1012.7
20260505221522 64 72 22.0 37.0 0.00 0.00 0.00 39 1013.1
20260505220041 64 360 21.0 37.0 0.00 0.00 0.00 41 1013.2
20260505214525 65 57 26.0 38.0 0.00 0.00 0.00 38 1013.3
20260505213019 66 54 26.0 37.0 0.00 0.00 0.00 39 1013.5
20260505211537 64 173 22.0 43.0 0.00 0.00 0.00 43 1013.5
20260505210024 65 90 31.0 43.0 0.00 0.00 0.00 42 1013.5
20260505204525 66 71 26.0 40.0 0.00 0.00 0.00 40 1013.7
20260505203024 65 143 24.0 36.0 0.00 0.00 0.00 42 1014.0
20260505201520 65 55 30.0 41.0 0.00 0.00 0.00 42 1013.8
20260505200015 64 77 29.0 40.0 0.00 0.00 0.00 42 1014.1
20260505194528 64 58 25.0 48.0 0.00 0.00 0.00 42 1014.3
20260505193034 64 86 30.0 39.0 0.00 0.00 0.00 43 1014.3
20260505191526 65 11 25.0 38.0 0.00 0.00 0.00 42 1014.1
20260505190005 64 146 23.0 37.0 0.00 0.00 0.00 41 1014.3
20260505184504 64 93 24.0 31.0 0.00 0.00 0.00 42 1014.9
20260505183029 63 61 23.0 36.0 0.00 0.00 0.00 41 1015.0
20260505181518 64 135 22.0 29.0 0.00 0.00 0.00 40 1015.0
20260505180016 65 74 23.0 32.0 0.00 0.00 0.00 36 1015.2
20260505174510 62 32 22.0 30.0 0.00 0.00 0.00 41 1015.4
20260505173008 62 46 15.0 25.0 0.00 0.00 0.00 40 1015.4
20260505171524 60 63 17.0 24.0 0.00 0.00 0.00 41 1015.4
20260505170026 60 101 16.0 27.0 0.00 0.00 0.00 41 1015.3
20260505164519 61 55 18.0 23.0 0.00 0.00 0.00 40 1015.1
20260505163016 61 97 19.0 31.0 0.00 0.00 0.00 40 1015.2
20260505161514 62 1 20.0 26.0 0.00 0.00 0.00 39 1015.1
20260505153025 58 65 16.0 23.0 0.00 0.00 0.00 49 1015.2
20260505151521 57 119 16.0 25.0 0.00 0.00 0.00 52 1015.3
20260505124536 56 83 14.0 19.0 0.00 0.00 0.00 49 1015.0
20260505123011 56 23 16.0 22.0 0.00 0.00 0.00 50 1014.6
20260505121505 56 47 15.0 21.0 0.00 0.00 0.00 49 1014.3
20260505120003 56 73 17.0 24.0 0.00 0.00 0.00 50 1014.1
20260505114514 56 70 18.0 24.0 0.00 0.00 0.00 50 1014.2
20260505113015 57 26 15.0 23.0 0.00 0.00 0.00 49 1014.3
20260505111517 56 46 18.0 23.0 0.00 0.00 0.00 49 1014.5
20260505101518 58 97 14.0 21.0 0.00 0.00 0.00 46 1014.6
20260505100017 56 57 13.0 19.0 0.00 0.00 0.00 50 1014.7
20260505094518 56 32 12.0 17.0 0.00 0.00 0.00 52 1014.5
20260505093014 56 58 14.0 19.0 0.00 0.00 0.00 52 1014.9
20260505091513 57 34 14.0 20.0 0.00 0.00 0.00 47 1015.1
20260505090006 57 149 15.0 18.0 0.00 0.00 0.00 49 1014.9
20260505084540 57 32 13.0 19.0 0.00 0.00 0.00 50 1014.9
20260505083018 56 58 13.0 20.0 0.00 0.00 0.00 55 1015.1
20260505081519 55 54 12.0 17.0 0.00 0.00 0.00 61 1015.2
20260505080020 55 44 10.0 17.0 0.00 0.00 0.00 62 1015.1
20260505074512 57 74 11.0 20.0 0.00 0.00 0.00 55 1015.6
20260505073026 59 47 16.0 25.0 0.00 0.00 0.00 45 1015.4
20260505071521 57 68 12.0 20.0 0.00 0.00 0.00 50 1015.6
20260505070028 58 51 17.0 26.0 0.00 0.00 0.00 49 1015.4
20260505064522 61 58 19.0 30.0 0.00 0.00 0.00 40 1015.1
20260505063028 61 68 17.0 25.0 0.00 0.00 0.00 37 1015.2
20260505061520 61 43 17.0 24.0 0.00 0.00 0.00 37 1015.1
20260505060032 61 70 15.0 20.0 0.00 0.00 0.00 36 1015.2
20260505054526 61 66 10.0 15.0 0.00 0.00 0.00 35 1015.5
20260505053006 62 30 11.0 20.0 0.00 0.00 0.00 35 1015.8
20260505051503 62 85 11.0 18.0 0.00 0.00 0.00 34 1016.0
20260505041516 65 87 14.0 23.0 0.00 0.00 0.00 28 1015.7
20260505040013 66 84 16.0 22.0 0.00 0.00 0.00 24 1015.7
20260505034508 67 91 15.0 22.0 0.00 0.00 0.00 23 1015.5
20260505033024 67 66 14.0 22.0 0.00 0.00 0.00 22 1015.2
20260505031525 67 23 15.0 24.0 0.00 0.00 0.00 22 1015.1
20260505030020 67 70 18.0 26.0 0.00 0.00 0.00 22 1014.5
20260505024515 67 51 16.0 26.0 0.00 0.00 0.00 22 1014.3
20260505023014 67 39 16.0 25.0 0.00 0.00 0.00 22 1014.1
20260505021508 67 43 16.0 26.0 0.00 0.00 0.00 21 1013.8
20260505020025 67 101 15.0 27.0 0.00 0.00 0.00 20 1013.5
20260505014522 68 36 18.0 26.0 0.00 0.00 0.00 20 1013.5